Weather History for Ramona, CA

Change the Weather History Date:

Tuesday, December 24, 2013

  Actual Average Record
Temperature  
Mean Temperature 57 °F 49 °F  
Max Temperature 75 °F 65 °F 85 °F (2005)
Min Temperature 38 °F 34 °F 25 °F (1998)
Degree Days  
Heating Degree Days 8 16  
Month to date heating degree days 340 371  
Since 1 July heating degree days 769 782  
Cooling Degree Days 0 0  
Month to date cooling degree days 1 0  
Year to date cooling degree days 899 850  
Growing Degree Days 7 (Base 50)    
Moisture  
Dew Point 31 °F    
Average Humidity 45    
Maximum Humidity 70    
Minimum Humidity 19    
Precipitation  
Precipitation 0.00 in 0.08 in 0.17 in (1994)
Month to date precipitation 0.84 1.41  
Year to date precipitation 7.26 15.22  
Since 1 July precipitation 2.76 3.89  
Snow  
Snow 0.00 in - - ()
Month to date snowfall 0.0  
Year to date snowfall 0.0  
Since 1 July snowfall 0.0  
Snow Depth 0.00 in    
Sea Level Pressure  
Sea Level Pressure 30.13 in    
Wind  
Wind Speed 5 mph (North)    
Max Wind Speed 17 mph    
Max Gust Speed 21 mph    
Visibility 10 miles    
Events      
T = Trace of Precipitation, MM = Missing Value Source: NWS Daily Summary

Daily Weather History Graph

Daily Weather History Graph

Search for Another Location

Airport:

Trip Planner

Search our weather history database for the weather conditions in past years. The results will help you decide how hot, cold, wet, or windy it might be!

Date:

Astronomy

Dec. 24, 2013 Rise Set
Actual Time 6:48 AM PST 4:46 PM PST
Civil Twilight 6:20 AM PST 5:14 PM PST
Nautical Twilight 5:49 AM PST 5:45 PM PST
Astronomical Twilight 5:19 AM PST 6:15 PM PST
Moon 11:37 PM PST (12/24) 11:04 AM PST (12/24)
Length of Visible Light 10h 53m
Length of Day
9h 58m
Waning Gibbous, 57% of the Moon is Illuminated
Dec 24
Waning Gibbous
Dec 25
Last Quarter
Jan 1
New
Jan 7
First Quarter
Jan 15
Full

Hourly Weather History & Observations

Time (PST) Temp. Windchill Dew Point Humidity Pressure Visibility Wind Dir Wind Speed Gust Speed Precip Events Conditions
12:53 AM 63.0 °F - 25.0 °F 24% 30.14 in 10.0 mi ENE 11.5 mph - N/A   Clear
1:53 AM 60.1 °F - 25.0 °F 26% 30.14 in 10.0 mi Calm Calm - N/A   Clear
2:53 AM 64.0 °F - 26.1 °F 24% 30.14 in 10.0 mi ENE 11.5 mph - N/A   Clear
3:53 AM 46.9 °F - 28.9 °F 50% 30.16 in 10.0 mi Variable 3.5 mph - N/A   Clear
4:53 AM 44.1 °F - 30.0 °F 58% 30.16 in 10.0 mi Calm Calm - N/A   Clear
5:53 AM 44.1 °F - 30.0 °F 58% 30.17 in 10.0 mi Calm Calm - N/A   Clear
6:53 AM 39.9 °F 37.8 °F 30.0 °F 68% 30.17 in 10.0 mi SSE 3.5 mph - N/A   Clear
7:53 AM 50.0 °F - 33.1 °F 52% 30.17 in 10.0 mi ESE 3.5 mph - N/A   Clear
8:53 AM 61.0 °F - 32.0 °F 34% 30.17 in 10.0 mi Calm Calm - N/A   Clear
9:53 AM 66.9 °F - 30.0 °F 25% 30.17 in 10.0 mi Calm Calm - N/A   Clear
10:53 AM 71.1 °F - 30.9 °F 23% 30.15 in 10.0 mi Calm Calm - N/A   Clear
11:53 AM 73.0 °F - 30.9 °F 21% 30.12 in 10.0 mi NW 9.2 mph - N/A   Clear
12:53 PM 73.9 °F - 30.9 °F 21% 30.09 in 10.0 mi NW 8.1 mph - N/A   Clear
1:53 PM 75.0 °F - 30.9 °F 20% 30.07 in 10.0 mi NW 4.6 mph - N/A   Clear
2:53 PM 75.0 °F - 33.1 °F 22% 30.06 in 10.0 mi West 6.9 mph - N/A   Clear
3:53 PM 72.0 °F - 35.1 °F 26% 30.08 in 10.0 mi WNW 6.9 mph - N/A   Clear
4:53 PM 60.1 °F - 37.9 °F 44% 30.10 in 10.0 mi WSW 3.5 mph - N/A   Clear
5:53 PM 55.9 °F - 37.0 °F 49% 30.12 in 10.0 mi NE 3.5 mph - N/A   Clear
6:53 PM 52.0 °F - 37.0 °F 57% 30.13 in 10.0 mi West 3.5 mph - N/A   Clear
7:53 PM 51.1 °F - 35.1 °F 54% 30.13 in 10.0 mi Calm Calm - N/A   Clear
8:53 PM 45.0 °F - 36.0 °F 71% 30.14 in 10.0 mi Calm Calm - N/A   Clear
9:53 PM 57.0 °F - 30.9 °F 37% 30.13 in 10.0 mi NE 9.2 mph - N/A   Clear
10:53 PM 64.0 °F - 27.0 °F 25% 30.14 in 10.0 mi NE 10.4 mph - N/A   Clear
11:53 PM 62.1 °F - 27.0 °F 26% 30.14 in 10.0 mi NE 10.4 mph - N/A   Clear